Regional Weather Roundup
Issued by NWS Northern Indiana

Home | Current Version | Previous Version | Text Only | Print | Product List | Glossary On
Versions: 1 2 3 4 5 6 7 8 9 10 11 12 13 14 15 16 17 18 19 20 21 22 23 24 25 26 27 28 29 30 31 32 33 34 35 36 37 38 39 40 41 42 43 44 45 46 47 48 49 50
000
ASUS43 KIWX 251410
RWRIWX

KIWX WEATHER ROUNDUP
NATIONAL WEATHER SERVICE NORTHERN INDIANA
1000 AM EDT MON JUL 25 2016

NOTE: "FAIR" INDICATES FEW OR NO CLOUDS BELOW 12,000 FEET WITH NO
SIGNIFICANT WEATHER AND/OR OBSTRUCTIONS TO VISIBILITY.

* THESE STATIONS ARE NOT UNDER NWS QUALITY CONTROL. THEY ALSO MAY NOT
  REPORT WEATHER SUCH AS PRECIPITATION OR FOG.

INZ001>027-251500-
NORTHERN INDIANA

CITY           SKY/WX    TMP DP  RH WIND       PRES   REMARKS
GARY*          PTSUNNY   79 N/A N/A N10       30.00R
VALPARAISO     SUNNY     79  68  69 VRB6      30.00R
MICHIGAN CITY* SUNNY     77  68  73 N9G17     30.00R
LAPORTE*       SUNNY     80  72  75 N10       30.00R
KNOX*          MOSUNNY   73  64  73 W5        29.99R
SOUTH BEND     SUNNY     78  69  73 NW10      29.99R
ELKHART*       MOSUNNY   77  73  88 W6        29.98R
GOSHEN         CLOUDY    77  68  73 W8        29.99R
MONTICELLO*    MOSUNNY   74  66  75 W5        30.01R
LOGANSPORT*    CLOUDY    73  68  83 W5        30.03R
ROCHESTER*     PTSUNNY   77  72  83 W6        30.01R
WARSAW*        MOSUNNY   73  68  83 W6        30.00R
ANGOLA*          N/A     77  72  83 W8        29.97S
FORT WAYNE     CLOUDY    74  67  78 W5        30.00F
HUNTINGTON*    CLOUDY   N/A N/A N/A W3        30.01R
PERU/GRISSOM   MOSUNNY   75  70  86 W8        30.01R
MARION*        CLOUDY    75  67  77 W5        30.03R

$$
INZ028>050-251500-
CENTRAL INDIANA

CITY           SKY/WX    TMP DP  RH WIND       PRES   REMARKS
LAFAYETTE      PTSUNNY   75  72  90 SW5       30.01R
KOKOMO*        CLOUDY    75  64  69 W8        30.03R
MUNCIE*        CLOUDY    79  68  69 NW3       30.03S
INDIANAPOLIS   PTSUNNY   83  66  56 W10       30.03R

$$
MIZ043>046-050>051-056>058-064>065-071>073-077>080-251500-
SOUTHWEST LOWER MICHIGAN

CITY           SKY/WX    TMP DP  RH WIND       PRES   REMARKS
BATTLE CREEK   PTSUNNY   75  69  81 W8        29.97S
BENTON HARBOR  SUNNY     77  67  71 NW9       29.98R
COLDWATER*     CLOUDY    77  70  78 W6        29.97R
HOLLAND        SUNNY     77  68  73 NW7       29.96F
GRAND RAPIDS   MOSUNNY   79  68  69 W9        29.95S
KALAMAZOO      SUNNY     79  67  66 NW8       29.97R
STURGIS*       MOSUNNY   76  69  80 W7        29.97R
THREE RIVERS*  FAIR      79  69  71 NW8       29.97S

$$
OHZ001>008-015>018-024>025-251500-
NORTHWEST OHIO

CITY           SKY/WX    TMP DP  RH WIND       PRES   REMARKS
WAUSEON*       FAIR      77  70  78 SW9       29.96S
DEFIANCE       PTSUNNY   78  66  66 W7        29.99R
FINDLAY        CLOUDY    81  67  62 W8        29.97F
TOLEDO EXPRESS CLOUDY    77  69  76 W10       29.95F
TOLEDO METCALF CLOUDY    80  69  69 W13G21    29.96S
LIMA           PTSUNNY   78  69  73 W7        30.01R

$$
AND FOR LAKE MICHIGAN COASTAL AND OPEN LAKE BUOY OBSERVATIONS

STATION/POSITION TEMP    WIND        PRES    VSBY  WAVE
                 AIR SEA DIR/SP/G                  HT/PER
                 (F)     (DEG/KT/KT) (MB)    (MI)  (FT/S)
CALUMET HARBOR    78     310/  3/  7 1014.2R
MICHIGAN CITY     75     290/  5/  6   N/A
BURNS HARBOR      74     310/  7/  9 1015.6R
SAINT JOSEPH      75     340/  8/ 10 1015.6R
SOUTH LAKE BUOY   72 72  320/ 14/ 17 1013.8S         2/ 4
4 MI NW BRIDGMAN  74 74  320/  8/ 12 1014.8R         3/ 4
MICHIGAN CITY     75 73  330/ 10/ 14   N/A           2/ 3

$$
&&




USA.gov is the U.S. government's official web portal to all federal, state and local government web resources and services.